Theta_e
291 287 286 285 287 286 284 283 284 284 285 285 284 283 282 282 284 285 285 287 286 287 286 287 287 286 287 286 287 287 285 284 283 283 283 283 283 283 282 283 283 282 282 284 284 284 284 285 284 284 283 283 282 282 283 283 284 284 285 286 285 287 287 287 286 286 286 285 285 286 285 285 285 285 286 286 286 286 287 287 287 287 288 288 287 287
291 288 286 288 289 288 284 283 285 286 284 285 284 282 282 281 282 286 285 287 287 286 282 281 283 285 287 287 287 286 284 283 283 283 283 282 283 283 283 282 282 282 283 284 283 284 283 283 283 283 282 285 282 282 282 283 284 284 285 285 285 286 286 286 286 286 285 285 285 284 284 284 284 284 284 284 284 285 286 286 286 286 286 286 286 286
284 285 292 290 288 284 285 285 286 285 286 284 283 281 281 283 282 286 286 286 286 286 284 284 283 285 286 287 286 285 284 286 286 285 285 283 283 283 283 282 281 281 282 281 282 283 282 282 282 281 281 281 282 282 282 283 283 284 284 284 284 285 285 285 286 286 285 285 285 284 284 283 283 284 284 284 284 285 285 285 285 285 285 285 285 285
287 285 288 288 284 287 285 286 286 286 285 283 282 281 282 283 282 280 283 283 285 284 282 283 284 285 287 288 288 287 286 286 286 285 284 284 283 283 283 282 281 281 281 280 281 281 280 280 279 280 281 281 282 282 282 283 283 284 284 283 283 284 284 285 285 287 285 285 285 284 284 284 283 282 284 283 283 283 283 283 284 284 284 284 284 284
290 291 288 285 286 287 286 285 284 284 282 281 283 282 282 282 283 282 282 283 283 284 283 284 283 283 285 285 286 283 284 284 283 283 282 283 283 284 283 282 281 281 280 280 280 281 280 281 281 280 281 280 281 281 282 282 283 284 283 283 283 284 284 284 285 284 284 284 283 283 283 283 282 282 282 281 281 281 282 282 282 282 283 283 283 283
285 286 287 287 287 286 286 284 284 284 281 279 282 285 285 284 284 283 281 282 279 279 280 281 277 275 278 283 285 281 281 282 281 282 282 283 282 282 281 281 281 282 280 281 280 280 280 280 279 279 280 280 280 281 282 282 283 282 283 283 283 283 283 283 283 283 284 283 282 281 280 279 279 278 279 278 278 279 279 279 281 281 281 281 281 281
287 287 287 287 286 286 286 283 282 285 281 281 285 283 285 284 283 282 281 282 276 274 281 281 277 276 278 280 282 279 280 281 280 281 282 282 282 281 281 280 280 281 280 280 280 280 279 280 279 279 279 280 280 281 282 282 282 282 283 282 282 282 283 284 283 283 283 281 281 280 280 279 278 278 279 279 280 279 280 280 279 280 280 280 280 280
285 286 284 285 287 285 285 283 283 286 283 281 282 281 282 283 282 282 282 281 279 279 281 280 279 275 276 281 283 281 280 280 280 280 281 281 281 280 280 280 280 280 279 280 279 279 279 279 279 280 280 279 280 281 282 282 282 282 282 282 282 282 283 282 282 282 282 281 281 280 279 280 279 278 278 279 279 280 280 279 279 279 279 279 280 280
285 283 285 285 284 283 283 283 283 286 284 281 284 282 283 282 281 281 281 279 278 277 276 278 280 276 275 276 279 280 278 278 279 280 280 281 281 280 280 280 279 280 279 279 279 279 279 279 279 279 279 280 280 281 282 282 282 282 282 282 282 282 281 282 281 282 281 281 281 280 279 278 279 279 279 279 279 278 278 277 278 278 278 279 280 280
286 287 285 286 284 284 284 282 283 287 284 284 283 283 282 282 281 281 279 278 277 275 274 279 279 273 278 277 277 278 277 279 280 281 281 281 281 280 279 279 279 279 279 278 279 278 278 278 279 279 279 279 280 281 282 282 281 281 281 281 282 281 281 281 280 280 280 280 280 279 279 278 278 278 278 278 277 277 277 276 276 277 277 277 278 278
287 290 290 287 286 286 282 284 283 286 285 284 281 282 279 280 279 278 277 276 271 268 277 280 278 279 275 277 278 276 278 281 282 280 281 281 280 279 280 279 279 279 279 279 279 278 278 278 279 279 279 279 279 280 281 281 281 281 281 280 280 281 281 280 280 280 279 279 279 278 278 278 277 277 277 276 276 276 275 275 275 275 276 276 276 277
284 287 287 284 288 285 284 284 283 283 283 283 281 280 280 281 275 273 269 273 269 271 275 276 278 279 272 276 278 282 280 281 283 281 280 281 280 279 279 279 279 279 279 279 278 278 278 278 278 278 279 279 279 280 280 280 281 281 280 280 280 280 280 280 280 279 279 279 279 278 278 277 277 277 276 275 274 275 274 275 274 275 275 275 276 276
282 284 282 285 289 287 284 283 282 281 282 282 280 277 275 271 271 269 270 269 268 274 275 273 276 275 275 282 279 281 283 281 281 283 282 282 280 279 278 278 278 278 278 278 277 277 278 278 278 278 278 278 279 280 280 280 280 280 280 280 279 280 280 280 279 279 279 279 278 278 278 277 278 277 276 275 275 275 274 274 274 274 274 274 274 274
283 281 283 285 286 287 286 282 280 283 281 280 280 277 275 270 266 270 271 268 270 275 275 275 277 274 279 280 282 284 283 284 281 283 283 282 280 279 279 278 278 278 278 278 278 277 277 277 277 278 278 278 279 279 280 279 280 279 280 279 280 280 280 280 280 279 279 279 278 278 277 277 277 276 276 275 275 275 275 275 274 274 274 273 273 273
275 276 281 285 284 286 287 286 284 279 280 280 280 282 279 275 273 274 273 274 278 277 274 275 271 269 272 277 276 276 276 278 280 280 279 280 279 279 278 278 278 277 276 277 277 277 277 278 277 278 278 279 279 279 279 278 278 279 279 280 279 279 280 279 279 279 279 278 278 278 277 277 276 276 276 275 276 275 275 274 274 274 274 273 273 273
280 280 281 284 283 286 285 284 282 281 281 281 279 279 275 277 280 277 276 271 275 273 274 269 274 275 278 278 278 276 276 276 277 277 278 277 278 277 277 277 277 277 277 277 277 277 277 277 277 277 278 279 279 279 278 278 278 279 279 279 279 279 279 279 279 279 278 278 278 277 277 276 276 277 276 276 276 275 275 274 274 274 274 273 273 274
280 277 281 283 282 284 282 282 285 284 279 279 280 277 280 281 281 276 274 273 271 273 274 274 276 279 278 277 273 276 275 275 275 276 277 277 277 276 277 277 276 277 276 276 277 276 277 276 277 278 278 278 278 278 278 278 278 278 279 278 278 278 278 278 278 278 278 277 277 277 276 276 275 275 274 274 274 274 274 274 274 273 273 273 273 273
280 280 282 281 283 283 280 281 282 280 283 280 275 279 281 282 280 276 271 271 271 270 275 272 276 279 276 278 274 274 274 274 275 275 276 276 276 276 276 276 277 276 277 277 277 277 277 277 278 278 278 278 278 277 277 278 278 278 278 277 277 277 277 278 278 277 277 277 276 276 276 275 275 275 275 274 274 274 274 273 273 273 273 273 273 273
282 280 280 279 280 282 282 283 283 283 283 281 279 283 281 276 274 274 270 270 270 272 274 278 277 279 280 280 274 274 274 275 274 275 275 275 275 276 276 276 276 276 276 276 276 277 277 277 278 278 277 277 277 277 277 278 278 277 277 277 277 277 277 277 277 277 277 276 276 276 275 275 275 275 275 274 274 274 273 272 273 272 273 273 273 273
284 280 279 278 279 281 280 281 277 279 282 281 282 280 281 278 278 272 275 274 278 274 275 275 279 278 280 280 279 278 276 276 275 274 275 276 276 276 276 276 276 276 276 277 277 277 277 277 277 277 276 276 276 276 277 277 277 276 276 276 276 277 277 276 276 276 275 275 275 275 275 275 275 275 274 274 274 273 273 273 272 272 272 273 273 273
282 280 275 277 278 280 277 279 279 280 277 277 278 276 277 276 278 277 276 274 276 274 275 274 273 280 280 283 282 281 278 277 276 275 276 277 276 276 276 277 276 276 277 277 277 277 277 276 276 276 276 276 276 276 276 276 276 276 276 275 276 275 275 275 275 275 274 274 274 274 273 274 274 274 274 273 273 273 273 273 273 273 273 273 272 272
279 278 279 276 276 277 279 281 283 283 284 280 280 278 280 277 274 273 274 277 275 277 273 273 273 282 282 280 283 282 281 279 278 277 277 276 276 276 276 276 277 277 276 277 276 276 276 276 276 276 276 276 275 275 275 275 275 275 275 275 275 275 274 274 274 274 273 273 273 273 273 273 273 273 273 273 273 272 273 273 272 272 272 272 272 272
282 277 278 277 278 280 280 281 279 281 281 281 281 281 281 281 279 275 273 275 273 277 279 277 274 278 280 281 279 280 279 279 278 278 277 276 276 276 276 276 276 276 276 276 276 276 276 276 276 276 276 275 275 275 274 274 274 274 274 274 274 274 273 273 273 273 273 272 272 272 272 273 272 273 272 272 272 272 272 272 272 273 272 271 271 272
289 278 274 280 280 278 278 278 278 278 280 280 279 278 279 278 281 280 281 279 276 277 273 274 272 277 279 279 278 278 278 279 278 278 277 276 276 276 276 276 276 276 276 276 276 276 276 275 275 275 274 274 274 274 274 274 274 274 274 273 273 273 272 272 272 272 272 271 271 271 271 271 272 272 272 271 272 271 271 272 272 272 272 271 271 270
279 280 278 274 272 277 278 276 277 277 277 275 276 279 280 282 281 280 278 278 274 278 276 274 271 278 281 278 277 276 276 276 277 276 277 276 276 276 276 276 276 276 276 276 276 276 275 274 274 274 274 274 274 273 273 273 273 273 273 273 272 272 272 272 272 271 271 270 270 270 270 270 271 271 271 271 271 271 271 271 271 271 271 271 270 270
284 279 279 272 273 272 272 270 271 273 277 277 276 277 279 279 280 277 275 277 273 278 278 275 275 282 281 277 276 276 275 275 275 276 276 277 276 276 276 276 276 276 276 276 275 275 275 275 274 274 273 273 273 273 272 272 272 272 272 272 272 271 271 271 271 270 270 269 269 269 269 269 270 270 270 270 270 271 271 271 271 271 271 271 270 269
277 279 282 283 280 279 281 283 282 279 275 275 276 277 278 279 280 281 279 277 275 278 277 279 279 280 282 280 275 276 276 276 275 275 275 276 276 276 276 276 276 276 276 276 276 275 274 274 274 274 273 273 273 272 271 272 271 271 270 270 270 270 270 269 269 269 268 268 268 268 268 268 269 269 269 270 270 271 271 270 270 270 269 270 269 269
275 278 281 282 284 285 286 286 284 283 282 282 281 279 278 278 278 278 277 276 281 276 274 281 282 280 281 284 280 277 277 276 276 275 275 276 276 276 276 276 279 276 276 275 275 275 274 274 274 273 273 272 272 271 271 271 270 270 269 269 269 269 269 269 268 268 267 267 267 267 267 268 269 269 269 269 270 270 270 270 269 269 269 268 268 267
279 280 284 281 281 284 285 285 285 281 282 283 283 283 279 277 278 276 277 281 281 277 276 282 283 281 283 284 284 282 279 278 277 276 277 277 276 276 275 276 276 275 275 275 275 275 274 274 273 273 272 272 271 271 270 270 270 269 269 269 268 268 268 268 267 266 266 266 266 266 267 268 268 268 269 269 269 269 268 268 268 267 267 267 266 267
279 281 284 283 282 283 283 283 283 282 282 282 282 282 282 279 277 279 279 281 280 280 282 282 282 281 284 285 285 284 282 280 278 277 276 275 275 276 275 275 276 275 275 275 275 275 274 273 272 272 272 271 270 269 269 269 269 268 268 267 267 267 267 267 266 265 265 265 265 266 267 267 267 268 268 268 268 267 267 267 266 266 265 265 265 265
283 281 285 281 280 281 283 282 281 281 281 280 282 282 282 282 282 282 281 281 281 280 281 281 280 279 284 286 285 284 280 277 276 275 276 276 276 276 275 275 275 275 275 275 275 274 273 272 272 271 271 270 269 268 268 268 268 268 267 267 266 266 266 266 265 265 264 264 265 266 266 266 267 267 267 266 266 266 265 265 265 265 264 264 264 264
282 278 278 278 278 280 283 281 281 280 279 279 279 280 281 281 279 281 281 283 281 279 280 279 277 277 283 285 281 281 277 277 276 275 276 276 276 276 275 275 275 275 275 275 274 272 272 272 271 271 270 269 268 268 268 267 267 267 266 266 266 266 265 265 264 264 264 264 265 265 266 266 266 266 266 265 264 264 264 264 263 263 263 264 264 264
281 279 279 277 277 278 279 277 276 276 277 276 278 280 281 281 282 283 284 284 283 283 279 276 277 283 284 280 278 277 277 277 276 276 276 276 276 276 276 275 276 275 275 274 273 272 272 271 271 270 269 268 268 268 267 267 266 266 266 265 265 265 264 264 263 263 263 264 264 265 265 265 265 265 264 264 263 263 263 262 262 262 262 263 264 264
279 280 280 282 276 277 273 276 276 275 271 275 284 285 284 281 281 279 280 282 283 282 281 283 284 285 284 280 279 277 277 277 277 277 278 277 276 276 276 276 276 275 274 273 272 271 271 271 270 270 269 268 267 267 267 267 266 266 265 265 264 264 263 263 263 263 263 263 264 264 264 264 264 263 262 262 262 262 261 261 261 262 262 263 263 264
280 281 280 281 276 273 274 275 273 271 274 283 277 281 283 283 282 281 282 283 283 283 283 282 283 283 284 284 280 278 278 278 278 278 277 278 278 277 276 276 275 274 273 272 271 271 271 270 269 269 268 267 267 267 266 266 265 265 264 264 263 263 262 262 262 262 263 263 264 263 263 263 262 262 262 261 261 261 260 260 261 261 262 262 263 263
279 279 279 278 276 273 270 272 268 272 282 284 281 279 281 280 281 279 278 281 282 282 282 281 282 283 284 284 281 278 279 277 275 275 277 277 278 277 276 276 275 274 273 272 271 271 270 269 268 268 267 267 266 266 265 265 265 264 263 263 262 262 262 262 261 262 262 262 262 262 262 261 261 260 260 260 260 259 259 260 260 261 262 262 263 264
284 282 281 276 280 274 275 273 276 281 280 283 284 278 278 278 276 278 276 281 285 282 281 281 282 283 283 283 278 276 276 276 275 276 276 276 276 277 277 276 275 274 273 272 271 270 269 269 268 267 266 265 265 264 264 264 264 263 262 261 261 261 261 261 261 261 261 261 261 261 260 260 259 259 259 259 258 258 259 259 260 261 262 262 263 264
285 282 282 280 277 281 277 274 274 274 272 279 281 280 281 282 281 280 278 277 283 280 282 281 281 282 281 276 275 275 276 274 271 274 277 276 276 275 274 275 273 273 272 271 270 269 268 268 267 267 265 264 264 264 264 263 262 261 260 260 260 260 260 260 260 261 260 260 260 260 260 259 259 258 258 258 258 258 259 260 261 262 263 263 263 264
283 283 283 282 278 277 275 272 273 273 276 284 276 278 279 279 280 278 273 273 280 280 281 282 281 281 278 275 274 276 275 272 274 276 277 275 275 274 273 273 272 272 270 269 269 268 267 266 266 265 264 264 263 263 263 262 261 260 259 260 260 260 259 259 260 259 259 259 259 259 258 258 258 258 258 258 258 259 259 260 261 262 264 264 265 265
279 279 279 276 277 277 276 274 272 277 278 278 276 277 278 280 281 278 270 275 279 278 279 280 280 279 276 276 275 276 275 272 275 277 277 276 275 274 273 272 270 269 269 268 267 267 266 265 264 263 263 262 262 263 262 261 260 259 259 259 259 258 258 259 259 259 259 259 258 258 257 258 257 258 258 258 258 259 260 262 262 262 262 263 264 265
276 274 278 274 277 278 278 275 277 278 283 278 277 277 279 280 279 270 271 282 279 277 277 279 279 278 277 276 276 274 278 278 277 276 276 275 273 272 272 272 271 270 268 268 268 268 264 264 263 263 262 263 262 262 261 260 259 258 258 258 258 257 258 259 259 258 258 257 257 257 257 257 258 257 258 259 259 261 261 261 261 262 262 262 263 264
274 275 274 277 274 275 276 275 275 278 283 279 279 279 281 279 269 274 283 280 278 277 278 280 279 278 278 277 277 279 276 274 276 276 275 274 274 272 271 270 269 268 268 268 267 265 263 263 262 262 262 262 261 260 260 259 257 258 257 257 256 257 258 258 258 257 256 256 255 256 256 257 257 258 259 260 261 260 260 261 261 262 262 262 262 263
275 273 271 274 276 274 275 272 271 270 281 281 279 278 282 278 280 282 278 278 279 279 278 278 279 278 279 277 278 276 274 274 275 275 275 274 272 270 269 269 268 267 266 264 263 264 263 261 261 261 261 261 260 260 259 258 256 257 256 256 256 257 258 257 257 256 255 255 255 255 256 257 257 258 259 260 260 260 259 260 261 261 261 261 261 262
281 274 273 275 279 271 273 270 271 280 282 282 280 277 279 285 285 279 281 278 278 278 278 278 278 278 279 279 277 275 275 274 274 274 274 273 272 271 270 269 268 266 265 264 263 262 261 260 260 260 259 259 259 258 258 257 256 256 255 255 257 257 256 256 255 254 254 254 254 255 256 257 258 258 259 260 259 259 259 259 260 260 260 261 261 261
283 281 282 278 281 276 276 279 284 281 281 282 284 285 283 285 280 281 281 280 278 278 277 279 278 278 279 279 277 276 274 275 274 274 273 272 271 270 268 267 266 265 264 263 262 261 260 259 258 258 257 258 258 257 257 257 255 254 254 255 256 255 255 254 253 253 253 253 254 255 256 257 258 258 259 259 259 258 259 259 259 259 260 260 261 261
285 286 283 282 281 285 286 286 281 278 280 281 283 280 281 282 279 281 281 279 279 279 279 279 279 278 278 278 277 276 276 275 274 273 273 272 270 269 268 266 264 263 262 261 260 260 258 257 256 255 255 256 257 257 257 256 255 253 254 255 255 255 254 253 252 252 252 253 254 254 256 256 257 258 259 259 259 259 259 259 259 259 259 260 260 260
284 283 284 283 283 281 278 287 285 283 279 281 282 281 279 282 280 280 280 280 280 279 279 280 279 278 278 278 278 277 276 276 274 274 272 271 269 268 266 265 263 262 260 259 260 258 257 255 255 254 254 254 256 256 256 255 255 255 255 254 254 254 253 252 252 252 252 253 254 255 256 256 257 258 258 258 259 259 259 259 259 259 259 260 260 260
280 286 282 283 283 282 284 286 281 285 283 282 282 281 281 280 280 280 281 281 281 281 281 280 279 278 278 278 278 278 277 276 275 273 271 270 269 267 266 264 262 261 260 260 259 257 256 255 254 254 253 254 256 256 255 254 254 254 254 254 253 252 251 251 251 251 252 252 254 255 256 257 258 258 257 258 258 258 258 259 259 259 260 260 260 261
285 284 279 283 281 284 286 286 279 281 282 281 281 282 283 282 281 280 280 280 280 280 279 278 279 278 278 279 278 278 275 275 275 273 271 270 267 266 265 263 262 260 259 258 257 256 255 254 253 254 254 254 255 255 253 253 253 253 253 253 252 252 250 251 251 251 252 253 254 255 257 257 257 257 257 257 258 259 259 258 260 260 261 262 263 264
283 281 284 281 279 280 281 284 283 278 280 282 281 282 282 282 281 280 280 279 279 279 278 277 277 277 279 279 278 278 276 274 274 272 270 269 267 265 263 261 259 259 258 258 256 255 255 254 253 252 253 254 254 253 252 252 252 252 253 252 252 251 250 250 250 251 252 253 254 255 256 256 257 257 257 257 257 257 258 261 265 264 262 261 266 269
285 286 285 281 282 282 286 288 287 286 287 288 284 283 283 283 282 280 279 279 279 279 279 278 276 275 276 276 278 278 276 274 272 271 269 267 265 264 262 260 258 258 258 256 254 254 253 254 253 253 252 253 253 252 251 251 251 251 252 252 252 251 250 250 250 251 252 253 254 256 256 256 256 256 256 257 257 257 257 257 258 264 266 267 267 268
Wind_Speed
0 1 2 6 8 7 5 4 4 4 5 2 1 2 7 6 9 6 5 7 1 2 10 12 10 10 10 9 13 14 10 7 7 10 11 10 10 9 8 8 8 6 7 6 6 5 3 1 0 1 1 2 5 4 4 4 5 5 6 7 8 8 8 8 9 8 9 9 10 8 9 11 11 12 12 10 10 11 11 14 15 15 13 14 16 16
2 1 6 8 9 7 6 4 1 0 2 3 3 3 8 4 9 9 4 1 0 4 6 2 5 10 12 9 10 9 10 15 14 14 13 12 12 10 10 9 8 7 3 4 3 2 1 1 2 3 3 4 4 4 4 4 5 5 6 7 6 6 7 7 7 7 7 6 7 9 10 10 10 10 11 12 10 11 12 12 13 14 14 15 14 13
1 5 10 6 4 3 1 0 1 3 3 1 3 2 4 9 5 12 6 3 1 0 10 8 8 9 10 10 8 12 17 16 18 20 20 19 15 12 9 9 8 5 6 6 5 1 1 1 2 3 4 3 1 3 2 3 5 5 5 4 4 4 5 5 5 7 7 6 7 8 9 10 10 8 8 9 11 11 11 12 12 13 13 14 14 14
6 5 9 3 5 3 0 0 1 0 0 3 1 1 9 4 3 8 3 3 1 1 6 5 11 8 10 11 17 13 17 14 14 13 9 12 16 14 13 10 10 8 7 7 6 4 0 1 1 2 3 2 2 2 2 4 4 4 4 4 4 4 4 5 6 6 5 6 8 7 8 9 9 10 11 10 8 9 11 13 12 12 13 15 16 14
9 5 1 5 3 4 4 0 3 1 7 3 4 5 6 7 8 7 5 4 4 6 3 11 13 8 11 15 14 0 6 6 7 5 5 7 6 7 6 6 8 10 7 6 4 2 1 1 0 1 2 2 2 2 3 4 4 3 4 4 4 4 4 4 5 5 5 8 9 10 10 8 9 8 9 12 13 12 10 11 10 12 12 14 14 15
10 5 2 3 1 1 3 3 5 5 4 4 6 10 11 8 9 7 3 5 5 5 5 2 10 2 4 10 13 0 2 8 5 11 13 11 8 8 9 9 7 6 5 7 6 4 2 1 2 2 3 2 1 2 2 2 3 3 4 3 4 3 3 4 4 5 6 7 9 11 12 14 13 13 10 10 14 15 16 14 14 13 13 12 14 12
4 2 1 4 4 2 2 4 4 6 6 1 7 4 8 7 5 5 5 4 5 3 2 2 4 13 3 4 8 5 6 11 4 11 12 10 10 10 10 9 8 8 4 2 2 2 2 1 0 2 2 2 1 2 2 3 3 4 3 3 3 3 3 3 3 4 6 8 7 8 8 9 11 13 13 10 10 8 11 13 13 14 11 13 14 16
2 1 4 2 3 3 3 5 4 9 5 5 2 2 3 1 4 3 0 3 7 0 7 2 4 10 14 10 9 8 12 12 10 11 11 11 11 11 9 9 8 7 6 6 5 4 2 1 2 1 3 3 3 3 2 3 4 4 4 4 4 3 3 3 3 4 4 6 7 8 8 8 8 10 13 14 13 12 10 11 15 13 13 13 12 15
3 2 2 2 1 3 7 5 3 7 5 4 1 2 0 2 3 1 2 6 2 4 11 5 4 4 9 4 3 6 7 9 15 14 14 13 13 11 10 10 8 8 7 7 6 4 3 2 2 3 3 3 3 3 3 4 4 4 4 4 4 4 4 4 3 3 4 4 7 7 7 9 8 9 10 11 11 12 11 14 12 13 14 12 12 13
2 2 6 7 5 7 5 3 5 10 4 2 2 1 1 0 1 2 4 4 3 1 14 10 9 5 19 5 2 0 4 11 15 17 16 15 15 12 10 9 8 6 7 5 6 5 4 4 3 4 3 3 4 3 3 4 4 4 4 4 5 5 3 3 3 3 4 4 5 7 8 10 12 10 10 8 10 10 11 14 14 12 15 13 13 12
2 2 5 4 6 4 3 0 2 0 1 2 4 2 4 3 3 2 3 2 2 4 17 8 12 11 12 4 10 9 11 13 13 4 6 9 10 9 10 10 9 8 7 6 5 5 4 3 3 2 3 4 4 4 4 5 4 4 4 4 5 5 5 3 4 3 5 5 4 6 7 10 12 13 12 12 12 10 11 12 14 13 11 12 12 11
2 1 1 2 3 3 3 3 3 1 1 2 2 2 7 7 6 2 3 3 1 10 5 4 12 13 10 6 6 10 3 4 10 13 17 18 18 14 11 9 9 8 7 6 5 4 2 2 3 2 3 4 4 4 6 5 4 4 4 4 6 7 6 5 4 4 5 5 5 5 7 10 11 11 10 12 14 13 13 14 14 13 12 11 11 12
3 6 2 5 3 8 3 3 1 4 3 3 2 3 3 7 6 5 2 3 6 10 2 2 3 5 15 18 4 10 13 8 6 11 17 20 17 13 11 10 8 7 6 6 5 4 3 3 4 4 4 3 4 5 6 6 5 4 4 5 6 9 7 7 5 6 7 6 6 7 8 9 9 10 10 12 12 13 11 12 13 13 13 12 11 11
8 2 1 3 2 4 7 6 2 1 0 4 3 2 1 3 1 7 5 3 6 5 2 4 2 10 8 9 8 15 10 8 6 9 12 14 17 17 13 9 8 7 6 6 5 4 4 4 4 4 4 5 5 6 6 6 4 4 5 5 7 10 8 7 8 7 8 8 7 6 8 9 9 10 9 10 11 12 10 10 12 12 12 12 12 12
2 6 6 6 4 3 7 7 8 4 7 8 2 6 7 5 2 7 4 8 12 11 3 3 1 8 1 5 2 7 10 6 5 5 5 8 11 10 8 7 7 7 5 5 5 5 6 5 4 4 4 5 6 6 7 4 4 4 6 7 8 10 10 9 9 9 10 10 8 7 8 9 8 9 10 10 9 10 11 12 12 12 10 11 12 10
8 8 4 1 1 4 8 1 5 6 3 2 3 4 4 8 5 8 7 5 8 9 12 4 8 5 7 1 0 1 2 3 2 5 10 11 10 10 9 10 9 7 7 5 5 5 4 4 4 4 4 6 6 7 5 4 4 6 7 7 8 9 11 10 11 10 10 10 9 9 10 11 10 9 9 11 10 10 11 13 13 14 11 11 11 13
1 5 1 2 2 1 3 2 1 3 3 2 5 6 8 2 5 4 5 1 1 1 18 2 11 8 5 2 1 2 3 1 2 5 9 11 11 9 10 8 8 7 6 6 5 5 4 4 4 4 5 6 6 4 4 4 5 6 8 8 9 9 9 11 11 12 11 11 10 11 10 10 10 11 12 12 13 14 13 13 12 11 13 12 11 13
4 7 1 4 5 1 1 1 1 2 3 7 2 8 1 1 2 2 5 3 1 5 12 1 13 21 4 14 2 1 3 4 4 6 8 8 8 10 9 9 8 7 7 6 6 5 4 4 5 6 7 6 5 4 4 5 5 6 6 7 9 10 12 12 11 11 11 12 12 12 12 11 11 11 12 12 13 13 13 14 11 11 12 12 13 14
5 8 4 2 1 1 2 1 2 0 1 4 4 2 2 4 3 0 3 5 4 7 9 9 6 20 14 13 2 6 9 11 9 6 8 9 10 11 9 8 8 6 5 4 4 5 5 5 6 7 6 5 4 3 4 5 6 6 6 6 6 10 11 12 11 10 10 10 10 10 12 12 13 11 11 12 13 13 14 15 14 15 14 14 14 14
1 4 4 1 2 1 1 4 6 4 1 2 1 2 1 1 5 3 7 4 1 13 6 14 5 23 3 7 12 13 17 15 12 9 13 16 14 11 10 9 9 7 6 6 6 5 6 7 7 6 4 4 4 4 4 5 5 6 6 6 7 9 10 11 12 12 13 12 11 13 12 12 12 12 12 12 13 14 15 15 15 15 15 15 14 14
3 3 7 0 4 2 3 5 9 10 8 3 1 4 1 2 2 1 1 5 6 7 9 11 12 21 4 8 11 12 16 16 17 18 15 14 11 10 10 10 9 8 7 7 6 6 7 6 4 4 4 3 3 4 4 4 6 6 5 6 7 10 12 12 12 11 12 12 13 14 15 15 13 13 13 14 14 15 15 14 14 15 14 14 14 14
2 2 9 3 1 6 7 3 7 10 13 10 12 11 14 7 5 3 12 4 4 7 8 7 14 25 3 1 8 7 11 14 14 17 16 11 11 12 11 9 9 8 7 8 7 6 4 3 4 4 3 2 3 4 5 5 5 6 7 7 8 9 10 11 12 11 12 11 12 15 15 15 14 13 13 15 15 16 15 14 14 14 14 15 16 14
5 3 1 8 9 10 5 1 2 2 1 3 7 10 10 8 4 6 12 7 0 9 5 2 6 25 10 5 4 5 6 10 13 15 13 11 12 12 10 9 8 8 8 8 5 4 4 4 4 4 3 3 4 5 5 5 5 6 7 8 8 9 12 10 12 11 11 13 13 15 14 14 14 14 15 16 15 15 16 16 17 15 16 16 15 15
3 1 1 8 4 2 2 2 3 3 0 2 6 2 5 12 16 15 12 2 5 3 4 4 11 23 2 1 1 2 3 8 13 16 15 11 9 10 10 8 9 6 5 5 3 3 5 4 2 2 3 3 4 4 5 5 5 5 7 8 9 10 11 12 11 11 12 13 15 15 15 15 14 16 16 15 15 18 17 16 16 16 19 15 15 14
3 4 5 5 5 6 2 3 3 2 2 5 6 9 14 10 6 2 3 2 2 17 6 6 21 21 1 2 3 2 3 7 9 6 10 12 10 10 10 8 7 7 6 4 5 5 4 4 4 4 3 3 4 4 4 5 5 6 8 8 10 11 10 10 11 12 13 13 15 15 14 15 15 16 17 17 15 17 19 17 17 17 16 18 14 16
6 5 8 6 10 9 12 4 5 7 12 6 4 5 8 13 14 3 7 6 14 8 10 15 21 19 8 2 1 1 3 4 3 5 5 10 12 10 9 9 9 7 6 6 5 4 5 6 4 3 4 4 4 3 4 4 5 6 8 9 8 10 11 11 11 11 13 13 14 15 16 16 15 16 17 17 17 19 16 18 17 16 18 14 20 18
3 2 8 13 11 16 17 12 1 6 4 6 8 13 13 12 13 12 5 8 18 10 11 26 21 21 29 9 3 5 5 9 9 7 10 9 9 10 10 9 8 7 7 6 6 6 4 4 5 4 5 5 3 3 3 4 6 7 8 10 9 9 11 12 11 12 12 13 14 15 15 15 15 15 16 18 17 15 19 16 16 18 16 18 16 17
2 3 12 14 18 20 19 18 7 6 12 14 13 13 10 12 12 14 16 21 14 3 19 26 15 17 30 19 10 9 9 8 7 11 10 8 11 12 10 8 7 6 5 5 4 5 6 6 4 5 5 3 3 3 4 4 5 7 8 10 10 10 10 10 12 13 14 14 15 15 15 14 15 16 16 15 16 17 14 16 18 15 18 15 18 18
6 10 15 8 17 20 19 18 7 4 8 14 19 18 8 13 12 20 24 24 15 14 24 30 21 19 27 18 6 13 14 16 15 15 17 15 11 8 8 9 10 9 7 7 8 7 6 6 6 5 3 2 3 4 6 7 8 8 9 8 9 10 11 11 11 14 14 14 15 15 15 15 14 14 16 17 17 15 18 18 15 17 16 15 16 16
2 9 12 7 16 16 17 14 9 11 12 14 23 23 7 13 21 22 20 23 23 24 29 27 26 33 31 21 9 11 10 12 12 8 6 8 12 12 11 11 11 9 9 9 8 8 8 7 4 3 2 2 3 5 7 8 9 9 10 11 10 10 10 10 12 13 14 15 15 15 15 15 15 14 14 16 16 16 15 15 14 15 12 14 13 14
7 10 5 3 9 15 17 7 6 10 11 19 27 21 13 18 15 17 21 25 23 22 27 28 29 31 30 17 11 7 7 4 6 12 15 14 12 13 14 13 11 10 10 9 9 9 7 4 3 2 2 3 4 5 6 7 8 9 10 10 11 11 11 10 13 14 13 15 15 15 15 14 13 13 14 13 15 13 14 14 13 13 14 14 13 14
7 6 5 2 6 14 8 2 2 1 5 16 26 25 20 18 18 22 19 24 18 24 25 21 18 24 26 15 5 8 9 12 14 14 12 12 13 14 15 14 11 11 10 10 9 6 4 4 1 2 3 4 4 5 5 8 9 10 10 11 12 12 12 12 13 14 15 14 15 15 14 13 14 15 15 15 14 15 15 14 14 13 15 14 15 13
9 5 5 4 8 14 1 7 5 1 5 15 27 27 23 22 25 20 19 22 24 21 14 16 23 25 19 2 5 5 11 11 11 13 13 12 14 16 16 14 13 11 10 8 6 5 5 2 0 1 2 2 4 5 6 6 9 10 10 12 12 12 12 13 13 14 15 15 14 15 14 13 15 16 16 15 13 14 14 15 14 13 15 14 15 13
5 7 8 6 7 4 4 3 5 2 7 24 3 4 14 18 20 22 24 27 25 15 18 21 23 19 10 8 9 8 10 11 12 13 17 18 15 14 11 11 11 10 8 6 6 6 3 1 1 1 1 1 3 4 5 5 7 9 9 10 11 12 13 13 15 13 15 15 14 14 14 13 15 15 14 14 15 15 13 14 14 14 13 15 16 15
13 11 8 5 3 4 4 4 2 8 23 6 1 1 7 11 14 21 25 25 19 16 20 22 25 23 23 15 10 8 9 8 10 12 9 11 16 15 15 12 11 9 9 8 6 4 3 2 1 1 2 2 3 4 6 7 7 9 11 11 13 12 13 13 13 14 14 15 15 14 15 15 15 16 17 16 15 15 15 15 15 15 14 14 16 17
10 11 5 2 3 3 3 5 4 20 11 12 6 6 2 4 3 3 15 23 21 19 16 20 25 26 21 17 9 6 8 5 3 3 10 10 11 13 12 11 10 9 9 8 6 5 5 3 2 3 2 2 3 5 5 7 8 10 12 11 12 12 11 12 13 13 13 14 15 15 16 17 18 17 17 18 17 17 18 17 17 18 17 16 16 14
12 7 7 7 6 11 8 11 19 12 22 29 22 6 8 8 9 11 13 20 16 8 17 17 23 23 17 11 5 5 6 6 4 4 3 8 8 8 13 11 11 10 7 5 5 5 4 4 5 5 2 3 3 5 5 6 8 10 12 12 10 11 11 12 13 13 14 14 15 16 16 17 17 18 19 18 19 19 18 18 19 18 14 16 15 15
9 15 10 11 8 12 12 10 4 7 12 24 2 1 5 5 6 5 1 15 16 8 12 17 20 19 11 4 6 9 8 6 2 8 7 5 5 8 4 7 5 6 6 6 5 5 5 6 6 4 3 2 3 3 5 7 8 10 11 11 11 11 12 12 13 14 14 15 15 16 16 16 16 18 19 19 19 20 19 17 15 14 15 15 15 15
2 1 3 14 6 5 7 9 11 11 18 12 5 3 4 6 9 7 3 15 7 13 14 16 16 13 8 11 9 11 8 8 12 8 10 10 7 8 10 7 7 6 6 6 7 6 6 6 5 2 2 3 6 6 7 8 7 9 11 11 12 12 12 12 13 14 15 16 16 15 15 15 16 16 18 19 18 18 19 18 17 15 12 14 15 16
8 6 6 6 11 10 11 9 12 8 15 3 7 4 6 11 8 4 5 16 2 9 9 11 12 9 9 12 14 12 12 9 13 9 12 13 12 10 12 12 9 8 6 6 5 7 7 4 3 5 6 6 6 6 7 6 7 9 10 12 11 12 12 13 14 15 15 15 15 14 15 15 16 17 16 19 20 17 16 15 16 17 18 16 14 14
8 2 9 18 17 16 14 9 7 10 14 9 11 9 9 6 8 2 10 21 10 10 9 10 13 11 13 14 14 11 14 7 4 9 15 13 11 7 4 6 8 8 8 6 6 7 6 5 5 4 5 4 6 6 5 6 8 9 9 11 11 12 13 14 15 15 14 14 15 15 16 14 14 18 18 16 16 16 16 16 17 17 16 16 15 15
2 3 3 5 7 13 11 13 14 12 13 10 8 19 11 7 2 18 12 7 14 10 9 12 11 11 14 17 14 12 6 7 8 12 15 16 15 11 10 9 9 7 5 7 8 7 6 5 5 4 5 4 6 5 5 6 8 9 9 10 11 13 14 14 15 14 15 15 15 15 15 15 16 15 14 15 15 17 17 15 15 15 15 15 15 16
15 12 11 12 6 3 1 8 2 9 9 26 16 8 9 9 17 6 6 1 5 11 11 8 9 10 14 12 12 8 10 9 13 15 15 14 13 13 13 12 11 9 8 8 8 6 6 4 4 3 4 6 6 5 6 6 8 9 10 11 12 12 14 14 14 15 15 15 15 15 15 15 16 16 13 13 15 17 17 16 15 15 15 15 15 15
10 8 5 7 9 9 12 12 13 18 7 23 24 16 16 25 9 8 10 7 3 5 9 7 6 10 12 13 11 9 10 11 8 12 12 11 10 10 9 9 8 8 7 7 8 6 4 5 3 4 5 5 4 4 5 5 8 9 11 12 11 12 13 12 13 13 14 14 14 15 14 15 15 14 12 13 15 15 16 17 15 14 12 13 13 13
18 16 14 13 12 11 12 18 20 5 15 22 22 14 16 21 4 9 8 10 9 6 4 7 9 8 11 11 12 13 9 11 15 15 17 15 13 13 13 12 10 8 7 7 6 5 4 5 3 3 3 5 4 5 4 4 7 10 11 10 10 12 13 13 14 13 13 14 14 14 14 14 13 13 12 13 14 14 14 15 15 14 13 12 12 13
3 12 6 4 8 17 14 13 5 2 9 16 17 2 2 6 3 5 9 9 7 9 9 9 9 11 9 10 12 7 13 12 13 12 10 13 12 10 10 11 8 8 7 7 5 5 4 4 4 4 4 5 3 4 3 4 5 8 10 10 10 11 12 13 14 14 14 13 13 14 14 15 13 12 12 13 12 13 12 13 14 13 13 12 11 12
7 4 6 9 2 7 12 23 21 18 6 15 19 9 2 5 9 7 7 9 8 9 9 6 11 12 12 11 14 15 10 13 14 13 12 11 12 12 14 11 8 9 9 8 7 5 5 4 4 3 3 5 4 3 3 4 4 6 8 9 9 10 11 12 12 13 12 13 13 12 12 13 12 13 12 11 11 11 12 12 12 12 12 11 12 12
5 12 8 17 13 13 23 14 4 7 15 17 14 14 14 8 9 7 6 7 10 10 12 10 7 9 9 11 13 14 13 13 14 12 11 12 12 12 11 11 11 8 6 7 7 6 6 5 3 1 1 3 3 3 3 4 5 6 7 7 8 9 10 11 11 11 12 13 12 11 12 12 15 15 12 12 12 12 13 13 13 12 12 12 12 10
5 14 10 13 13 18 23 18 2 4 6 11 14 15 15 12 11 8 7 8 9 11 7 5 7 11 12 14 12 12 12 11 13 15 14 10 10 10 11 11 9 9 9 9 6 6 5 4 2 0 1 3 2 3 3 4 5 5 7 8 7 8 9 10 11 10 11 11 10 11 11 11 11 12 12 12 11 11 11 12 14 13 11 13 12 14
8 14 6 8 11 18 19 24 13 6 11 14 19 22 15 11 12 12 9 9 10 12 11 10 4 5 10 11 12 12 14 11 9 11 13 12 12 12 12 11 9 9 8 7 7 7 5 4 2 1 1 2 2 2 3 4 4 4 5 6 6 7 8 9 10 9 9 9 10 10 11 11 11 11 12 12 12 13 14 18 21 18 14 13 23 29
17 19 13 14 17 22 23 24 14 17 17 11 12 15 14 13 14 16 17 15 12 13 13 13 10 6 5 5 7 13 12 13 12 10 11 9 10 10 12 13 12 9 8 8 8 6 4 3 2 1 2 2 1 2 3 4 4 4 6 6 7 7 8 7 8 7 8 9 9 11 11 10 11 11 11 11 12 12 13 14 15 20 25 27 27 27
Wind_Direction
108 71 265 253 243 221 226 180 193 213 180 204 133 188 251 238 277 276 264 260 181 262 243 240 238 249 252 215 207 199 188 211 196 200 202 197 193 198 198 194 195 191 190 197 200 204 155 144 271 274 321 350 353 354 350 346 350 9 8 10 10 0 0 3 1 1 355 348 342 344 342 333 333 327 325 323 327 324 322 321 319 319 319 322 323 317
63 2 270 228 228 201 203 206 182 57 153 200 235 243 277 219 256 266 275 348 0 174 285 246 229 250 252 243 220 194 183 207 200 205 204 198 199 198 193 193 194 203 209 183 240 221 69 29 350 346 3 20 11 332 339 358 352 5 7 14 357 355 0 3 2 353 347 351 346 337 330 328 324 328 327 325 325 319 316 318 323 322 319 314 311 312
18 234 261 238 219 149 82 130 175 203 234 149 209 253 321 271 243 280 289 268 227 80 263 276 256 253 257 253 229 188 197 207 204 199 199 189 193 196 192 191 194 189 193 201 215 244 261 7 342 4 353 335 272 293 334 345 360 1 2 348 352 354 -0 356 356 350 346 342 342 337 323 326 320 315 311 309 313 314 316 321 319 314 313 315 311 308
334 288 250 254 134 145 10 62 153 118 49 208 201 285 254 241 10 305 292 6 322 194 284 284 271 259 261 257 249 207 200 212 211 213 207 195 190 188 189 186 182 190 190 196 190 187 316 345 313 339 334 307 314 337 343 358 356 353 345 339 352 355 356 354 348 346 340 337 328 322 319 319 317 316 314 306 301 307 316 317 321 316 319 317 313 315
230 226 114 107 117 153 225 25 153 176 266 277 199 225 261 277 249 210 276 323 293 293 237 281 277 248 217 243 255 195 204 203 207 188 202 216 209 187 186 195 184 184 189 190 202 226 280 31 344 269 272 305 357 321 334 344 338 333 324 324 339 345 346 339 337 341 341 336 336 333 326 321 318 316 322 323 322 324 314 308 313 315 313 310 309 310
279 274 130 114 112 119 162 247 216 158 251 315 239 206 233 249 272 276 326 11 2 313 304 44 322 267 264 223 252 106 145 214 195 190 203 197 191 191 196 194 201 201 190 171 183 196 177 197 278 321 327 339 307 299 283 281 287 307 304 313 327 332 336 336 339 349 350 346 339 338 337 334 332 323 326 326 324 324 324 321 315 310 311 307 305 301
226 353 113 176 158 163 177 209 241 157 199 57 270 196 227 241 248 279 314 18 291 252 306 60 226 286 136 228 231 190 203 221 186 207 206 192 193 196 195 186 188 192 203 205 134 141 136 232 234 296 290 261 261 267 259 278 285 289 291 296 307 313 311 317 328 353 347 341 337 329 323 318 317 315 311 312 307 303 308 310 310 309 309 309 307 305
112 0 55 56 125 162 213 267 242 161 129 237 257 110 106 150 242 260 352 193 251 323 282 240 164 272 287 244 233 190 199 214 211 218 207 198 195 198 190 186 188 192 180 175 170 178 195 223 202 243 256 256 234 249 270 280 285 282 287 304 311 313 320 316 335 344 351 330 325 321 315 306 303 305 304 313 313 309 306 304 307 308 306 303 299 292
149 189 179 152 136 169 216 211 189 158 156 219 232 122 313 221 248 233 256 268 256 6 288 242 139 277 254 275 358 137 204 235 231 213 208 201 201 193 189 191 193 190 181 164 165 180 190 210 236 226 247 245 253 259 257 273 272 275 287 294 294 301 302 301 309 323 321 322 314 309 305 306 297 296 297 302 303 305 308 303 304 302 302 301 298 305
277 187 210 164 149 227 223 240 173 155 219 283 171 132 65 44 188 216 252 275 324 56 273 258 166 209 273 176 99 324 250 243 231 216 206 201 199 190 188 193 194 186 177 176 161 176 200 212 224 225 236 274 254 254 262 273 276 283 279 276 284 293 286 277 288 292 303 305 305 302 304 301 304 305 300 292 295 301 307 302 302 304 306 305 306 300
236 334 151 134 203 212 153 63 147 185 128 131 61 13 350 357 350 34 61 90 46 252 249 237 179 181 280 197 180 158 214 209 222 194 192 207 208 197 193 187 186 174 171 172 179 198 214 226 233 274 272 264 292 287 277 274 278 272 266 267 282 287 290 280 281 290 298 302 285 288 296 299 302 305 304 305 301 300 301 302 304 304 302 302 299 302
347 5 170 259 79 102 108 90 11 88 89 104 46 56 353 311 7 36 340 49 138 265 259 223 188 193 215 278 221 227 264 218 192 188 190 199 201 190 189 189 180 170 166 170 173 205 245 314 307 314 289 276 273 289 275 271 267 263 272 291 304 307 306 303 299 299 296 291 284 276 288 294 295 298 299 299 299 302 301 303 302 303 300 297 298 299
284 213 239 325 213 132 114 94 314 17 5 73 67 35 23 285 6 314 48 295 189 235 222 63 130 303 232 247 225 245 246 248 214 194 194 196 188 182 186 181 178 167 160 169 183 196 238 221 246 271 271 277 274 259 266 271 272 281 295 308 313 310 314 308 300 299 298 297 290 288 290 288 290 288 288 288 291 295 297 301 299 301 298 300 300 298
277 287 314 244 24 217 131 139 237 293 251 116 155 159 98 319 7 271 255 234 294 275 268 80 81 249 279 280 234 243 248 243 211 215 205 186 174 180 177 174 165 166 169 180 184 200 210 223 234 242 248 250 252 261 264 268 278 294 307 316 312 304 308 307 307 304 301 297 292 287 286 287 289 287 285 285 287 293 293 294 292 290 291 295 294 298
310 336 268 155 228 168 177 186 179 164 157 200 134 146 187 154 213 281 296 284 285 283 283 246 47 233 120 233 299 261 270 265 197 200 167 155 163 160 156 155 160 173 191 177 191 197 209 226 226 238 245 244 251 257 260 262 285 305 317 319 315 310 311 312 307 307 305 303 299 289 282 283 284 284 287 286 286 289 297 297 290 285 285 284 290 291
211 224 256 278 254 151 174 213 125 99 62 181 163 81 87 228 141 225 229 247 298 326 302 152 214 187 215 158 242 319 2 27 91 119 132 140 147 154 160 168 175 180 185 191 195 217 234 231 239 248 251 250 251 250 253 276 304 325 322 317 309 307 309 312 310 308 304 301 297 292 291 288 285 284 285 287 286 287 292 292 289 288 284 282 284 285
62 266 273 320 52 152 191 148 194 129 203 222 107 203 211 158 153 277 330 290 62 18 263 178 278 257 311 196 340 21 70 39 103 139 145 155 159 160 168 173 180 184 188 190 200 208 232 257 251 242 245 251 250 257 271 301 321 319 314 312 309 309 308 308 309 308 309 304 301 296 292 290 289 288 288 287 289 293 292 290 286 283 283 281 281 285
212 255 242 122 220 287 198 121 88 16 140 104 203 239 196 128 87 139 245 317 216 222 270 151 271 284 99 290 53 54 175 194 184 169 165 158 163 173 179 179 185 188 195 196 196 202 213 224 236 249 248 244 252 253 284 309 311 308 306 304 306 308 310 309 309 308 306 306 304 301 298 294 289 289 288 289 291 295 295 291 288 283 284 283 285 284
115 295 227 279 99 345 348 146 350 313 5 164 188 256 125 249 298 305 83 286 268 247 278 266 288 266 245 248 141 222 202 205 198 191 172 183 189 187 181 188 192 195 186 196 203 221 231 232 237 238 246 267 263 263 279 298 307 307 307 302 299 303 304 305 307 305 301 300 298 298 299 297 297 291 289 289 290 292 290 289 288 288 285 285 284 286
61 224 305 334 123 317 26 105 206 210 331 55 339 320 241 106 229 145 198 218 137 274 294 280 314 282 134 209 196 211 200 197 182 188 199 199 190 181 182 184 187 189 189 191 204 214 222 233 235 243 263 275 273 284 294 301 306 307 305 308 306 302 302 304 306 307 305 305 301 298 296 293 290 290 290 291 292 291 289 288 288 288 289 287 288 286
199 110 258 31 306 98 184 188 208 166 184 182 167 245 346 212 228 125 314 167 213 271 258 287 294 274 213 190 183 202 198 196 180 191 200 201 187 186 183 180 186 186 187 193 200 211 226 238 259 274 266 257 271 276 294 299 301 300 302 302 304 304 304 306 304 304 303 306 303 303 301 299 296 294 293 291 289 289 288 286 287 288 288 290 288 289
120 157 223 109 285 212 239 232 202 179 184 182 180 209 200 182 255 241 257 97 216 214 255 239 268 272 165 231 191 190 199 195 187 189 199 186 181 187 186 186 181 181 190 194 205 209 234 262 268 271 281 272 280 290 298 299 307 312 309 305 307 302 301 306 307 307 305 304 302 300 299 298 298 296 295 293 294 292 292 292 291 290 288 287 290 291
163 144 174 228 204 219 218 257 326 231 308 217 171 228 180 201 161 195 257 229 276 234 243 288 309 269 119 170 183 175 184 191 178 192 200 177 186 187 184 184 191 179 184 196 207 214 234 239 244 247 242 257 267 280 291 299 301 300 304 307 306 306 304 306 303 305 306 303 301 299 298 297 297 297 295 293 294 296 297 295 294 293 292 291 292 292
100 176 234 268 312 -0 35 330 8 29 34 311 259 193 147 204 198 207 226 182 210 235 166 237 232 261 64 46 220 174 225 186 180 194 183 175 180 184 176 185 185 184 189 200 199 225 238 243 264 260 265 273 276 281 290 290 293 299 302 307 311 308 307 307 308 306 306 302 299 300 299 299 299 296 295 295 296 297 298 297 294 298 296 289 292 290
118 248 160 281 339 319 329 2 337 344 59 226 222 208 211 221 216 259 61 99 297 239 180 199 252 266 63 337 56 85 125 160 185 188 168 169 184 177 181 182 183 183 186 199 215 232 252 271 263 249 247 254 261 269 278 287 300 311 309 312 312 306 305 307 308 308 305 303 301 301 300 299 300 298 297 295 295 298 299 296 304 298 296 294 289 294
180 181 143 200 226 263 268 228 236 236 220 218 242 224 214 204 212 140 243 226 240 236 178 235 252 265 260 52 352 150 177 173 178 172 192 176 170 174 180 185 183 176 186 198 220 244 248 243 249 258 257 254 254 259 278 298 308 313 308 306 309 306 310 310 309 303 305 305 304 304 303 302 299 297 296 298 298 298 299 300 297 304 298 294 295 295
188 203 197 209 205 232 244 260 195 118 82 208 230 206 210 207 209 213 233 234 236 245 241 246 249 275 271 226 259 234 213 189 178 184 182 184 185 180 179 179 177 180 190 203 212 226 245 270 257 249 246 247 257 277 296 310 314 311 308 306 311 313 311 312 309 305 304 305 303 301 301 300 298 298 299 298 298 300 301 300 303 303 303 301 294 294
75 230 230 220 227 235 244 251 233 172 246 249 246 233 192 197 187 198 207 233 231 278 257 259 244 250 265 263 216 221 216 218 203 187 188 184 185 180 178 175 177 184 206 211 223 228 231 243 252 245 248 259 279 302 307 311 310 312 315 314 315 316 312 310 311 309 308 307 304 302 300 299 298 299 297 297 299 300 301 305 304 305 305 302 298 296
168 223 238 199 239 245 247 252 239 221 242 259 261 259 195 190 189 204 222 235 232 226 248 264 270 260 262 264 224 217 207 208 198 195 195 185 168 164 167 174 182 193 205 209 221 222 224 237 233 242 260 285 319 329 328 324 324 322 315 311 311 313 313 312 309 308 307 306 303 301 301 300 301 299 300 301 302 304 307 306 303 304 302 298 296 294
125 244 249 194 245 244 250 251 252 247 260 265 261 257 224 193 208 215 232 238 230 239 249 262 271 268 269 270 263 238 208 202 204 184 148 152 176 177 175 180 187 195 202 210 216 217 222 226 234 256 272 328 343 338 334 327 321 321 317 315 316 313 310 314 307 306 306 303 301 300 300 299 297 299 299 303 303 306 304 303 303 302 296 293 286 286
164 249 225 190 249 261 257 245 225 235 248 261 264 262 242 241 235 229 237 250 249 251 255 255 261 269 269 267 255 241 185 141 132 164 181 184 175 179 180 185 191 196 203 210 212 216 219 226 245 253 340 354 351 340 330 316 313 313 313 313 314 312 311 314 307 307 304 302 302 301 300 299 298 300 303 303 304 305 305 306 305 301 296 290 286 282
182 264 69 96 249 265 272 223 251 237 284 266 270 267 247 239 246 238 231 238 233 239 246 256 262 260 264 272 220 211 166 166 175 178 177 187 185 179 185 188 188 197 202 207 211 207 217 230 238 355 6 354 341 336 329 323 318 316 314 316 314 312 314 312 309 306 304 302 303 303 303 303 304 306 308 310 307 310 308 306 304 302 299 293 290 284
192 152 180 178 218 252 333 96 86 85 302 279 255 250 240 228 228 240 242 242 233 229 242 247 244 247 260 263 208 206 183 189 173 179 184 185 185 184 184 184 190 195 199 201 200 205 209 214 133 45 20 4 340 327 326 323 316 314 316 314 310 312 313 312 310 308 306 307 307 306 307 308 309 310 310 310 309 309 309 306 303 300 298 292 290 287
152 181 220 146 210 239 55 100 117 123 275 251 329 168 179 213 215 225 240 240 236 197 222 229 245 259 267 237 224 208 193 194 188 197 181 176 183 188 185 184 186 189 194 196 196 195 199 162 130 92 71 19 333 328 316 317 306 304 309 308 311 316 314 313 310 309 307 307 309 311 313 313 313 309 309 311 310 311 307 306 303 301 296 295 292 288
182 195 210 135 197 226 116 88 87 237 249 277 9 328 181 199 197 210 234 244 243 224 229 246 256 257 252 249 229 206 196 202 198 184 186 190 176 173 176 179 179 181 188 193 196 192 171 163 135 88 40 15 354 329 322 318 319 318 318 321 317 315 310 309 307 308 309 310 313 318 318 317 314 313 314 314 313 310 307 305 304 302 302 297 293 288
186 176 161 212 134 52 122 188 182 242 272 305 246 165 196 126 194 223 264 259 249 237 220 229 246 250 252 253 238 185 190 179 127 186 186 179 164 160 161 174 179 178 185 194 177 172 163 150 118 75 44 35 358 327 326 323 330 327 316 318 311 309 308 308 308 307 312 315 319 321 321 320 317 317 316 315 313 311 309 307 306 306 305 297 288 279
173 157 162 222 154 223 195 209 234 321 320 289 276 196 146 188 171 185 251 274 265 191 213 221 241 250 250 249 167 133 100 96 125 216 204 160 163 163 164 170 171 180 176 172 149 152 131 115 93 73 55 14 341 325 333 333 335 323 315 314 311 310 309 312 311 315 318 320 320 320 321 321 318 316 316 315 313 310 309 308 308 304 296 290 285 281
177 190 196 212 223 208 233 246 268 269 257 267 253 244 183 192 168 155 210 279 266 177 198 203 230 243 241 138 133 128 132 91 226 232 188 186 155 148 131 143 146 148 145 139 124 124 109 92 79 73 56 346 335 341 347 343 332 321 314 312 313 317 318 317 316 319 319 317 320 320 322 321 317 315 314 313 311 309 306 304 298 297 294 286 286 285
253 311 176 205 220 140 214 223 234 238 247 247 127 191 164 131 129 114 74 274 260 172 197 197 217 230 187 150 148 145 126 196 232 216 171 169 163 154 144 148 149 149 144 143 144 122 102 85 92 101 56 17 355 356 353 340 331 324 317 316 319 321 317 318 319 323 321 319 320 321 321 318 315 313 312 310 308 307 306 306 307 297 299 303 303 299
173 179 149 203 220 214 212 223 237 213 254 234 164 159 171 134 115 80 352 270 196 186 184 188 207 197 165 158 153 165 163 207 228 216 157 162 161 157 154 156 153 148 133 122 102 107 103 101 79 43 25 16 356 355 348 342 335 326 320 318 320 318 318 321 323 318 319 319 320 319 317 316 313 312 311 309 307 305 305 309 313 315 311 306 305 303
178 177 193 206 214 222 220 247 286 279 257 163 169 155 158 140 95 86 230 255 151 179 186 173 200 173 157 157 166 173 210 200 156 133 148 139 133 138 138 141 143 145 145 132 112 97 87 73 67 38 15 360 358 358 349 347 335 326 321 317 318 317 319 321 320 322 321 319 317 317 315 314 313 311 310 305 303 307 312 314 313 311 310 310 309 307
271 140 320 263 229 222 209 226 237 267 264 147 175 155 155 106 153 230 246 113 152 179 189 182 179 170 162 172 182 198 146 119 121 124 136 155 160 152 143 136 123 113 113 106 100 92 85 74 55 30 10 13 4 4 353 346 332 319 322 321 316 317 320 322 324 322 321 319 317 315 314 313 312 309 308 306 309 315 312 312 311 309 313 312 309 310
180 162 196 202 189 44 144 228 289 267 259 144 145 137 188 167 232 209 95 200 147 172 170 196 169 178 167 182 186 136 127 128 141 151 153 152 147 153 152 151 149 150 139 116 83 79 92 95 74 34 13 358 5 5 349 342 327 323 324 319 315 321 322 323 324 323 320 316 315 317 315 314 313 313 312 312 315 313 313 314 315 315 316 315 314 315
161 160 191 212 166 173 189 200 209 223 133 149 146 182 188 214 209 135 145 169 220 159 175 162 188 175 182 169 158 147 145 136 134 147 145 148 146 138 144 142 132 112 102 95 108 113 103 98 72 37 13 10 3 356 344 338 329 325 322 316 321 323 322 322 323 321 318 316 316 315 316 315 315 312 312 315 316 314 314 317 319 319 319 319 320 323
187 199 181 194 183 165 197 214 226 111 159 180 185 201 201 202 117 177 141 163 157 215 176 164 180 183 179 168 159 150 152 166 158 161 158 169 159 159 154 151 139 130 122 115 106 99 81 81 55 27 4 10 360 342 338 342 336 322 317 317 327 324 325 325 324 324 319 319 317 318 315 315 316 316 319 321 318 318 318 318 323 321 323 321 324 325
179 206 57 72 214 229 262 261 67 236 194 192 215 198 147 178 201 155 152 149 190 165 174 170 184 175 180 162 145 171 165 168 154 167 156 154 151 142 124 113 106 101 106 110 109 99 101 91 70 51 0 344 354 331 338 344 338 319 311 321 325 326 326 324 324 324 322 319 317 316 317 318 319 320 325 324 319 318 320 319 322 319 320 325 323 325
217 154 173 229 193 157 246 244 223 224 171 204 209 220 300 210 181 176 168 164 169 161 178 196 166 175 167 167 166 170 173 162 161 163 153 146 148 146 145 134 129 135 134 127 125 118 94 82 64 38 10 325 330 328 339 335 327 311 314 321 324 328 326 323 322 320 319 320 317 318 320 324 326 330 330 330 325 324 326 326 322 321 322 325 324 315
256 172 168 225 213 192 243 245 335 222 193 200 199 205 222 200 194 201 172 166 164 172 177 184 163 162 158 171 180 166 166 167 154 155 155 159 154 152 148 145 137 128 125 126 119 110 107 96 96 57 336 304 306 327 334 329 317 316 315 320 327 325 325 322 325 324 320 319 320 321 326 327 331 333 331 334 333 334 334 332 328 328 330 329 324 309
125 121 211 196 211 235 252 257 168 61 236 221 214 218 210 189 182 181 171 161 155 161 171 157 175 164 171 184 170 160 151 175 164 161 157 150 146 151 153 146 143 135 136 130 120 116 112 121 124 156 270 283 302 326 323 316 312 314 323 327 328 328 328 325 324 320 317 320 323 326 329 332 335 336 334 332 335 336 336 328 334 335 332 335 327 336
129 208 190 108 213 237 226 234 170 188 233 224 210 214 202 183 178 177 171 165 165 166 163 161 177 184 184 174 165 159 161 166 163 152 157 160 159 150 137 135 134 132 127 118 115 113 113 125 132 167 248 279 302 321 317 316 312 315 318 325 330 333 329 327 323 323 325 326 328 328 334 339 338 339 335 336 338 337 334 334 344 348 346 344 348 351
194 210 183 198 212 239 231 233 203 211 233 238 203 201 190 185 179 179 185 181 179 171 165 163 157 154 169 194 182 161 160 159 163 152 144 148 151 150 146 142 141 139 135 130 120 119 124 140 153 175 238 259 294 318 310 308 309 315 330 336 337 335 326 322 322 322 324 331 334 335 342 339 341 340 337 339 341 341 340 336 334 349 1 358 355 356